This is the latest recevied weather packets stored in our database for station/object OE-11179. If no packets are shown the sender has not sent any weather packets the latest 10 day(s).
| Time | Temp. | Humidity | Pressure | Rain* | Wind** | Luminosity | Snow |
|---|---|---|---|---|---|---|---|
| 1787760332 | 23.33° C | 54% | - | 0 mm | - | - | - |
| 1787759732 | 22.78° C | 55% | - | 0 mm | - | - | - |
| 1787758905 | 23.33° C | 53% | - | 0 mm | - | - | - |
| 1787758531 | 22.78° C | 53% | - | 0 mm | - | - | - |
| 1787757932 | 22.78° C | 55% | - | 0 mm | - | - | - |
| 1787757105 | 22.78° C | 54% | - | 0 mm | - | - | - |
| 1787756732 | 23.33° C | 50% | - | 0 mm | - | - | - |
| 1787756132 | 23.33° C | 54% | - | 0 mm | - | - | - |
| 1787755306 | 23.89° C | 49% | - | 0 mm | - | - | - |
| 1787754932 | 23.89° C | 48% | - | 0 mm | - | - | - |
| 1787754332 | 23.89° C | 47% | - | 0 mm | - | - | - |
| 1787753505 | 23.89° C | 46% | - | 0 mm | - | - | - |
| 1787753132 | 23.89° C | 49% | - | 0 mm | - | - | - |
| 1787752532 | 23.89° C | 48% | - | 0 mm | - | - | - |
| 1787751705 | 24.44° C | 46% | - | 0 mm | - | - | - |
| 1787751332 | 24.44° C | 47% | - | 0 mm | - | - | - |
| 1787749905 | 23.33° C | 54% | - | 0 mm | - | - | - |
| 1787749532 | 23.33° C | 54% | - | 0 mm | - | - | - |
| 1787748932 | 22.78° C | 54% | - | 0 mm | - | - | - |
| 1787748105 | 23.33° C | 56% | - | 0 mm | - | - | - |
| 1787747732 | 22.22° C | 57% | - | 0 mm | - | - | - |
| 1787747131 | 23.33° C | 59% | - | 0 mm | - | - | - |
| 1787746305 | 22.78° C | 58% | - | 0 mm | - | - | - |
| 1787745932 | 22.78° C | 58% | - | 0 mm | - | - | - |
| 1787745331 | 22.78° C | 55% | - | 0 mm | - | - | - |
* Rain latest hour (hover to see other rain measurements)
** Current wind speed in m/s (hover to see current wind gust speed)